Regional Weather Roundup
Issued by NWS Northern Indiana

Home | Current Version | Previous Version | Graphics & Text | Print | Product List | Glossary On
Versions: 1 2 3 4 5 6 7 8 9 10 11 12 13 14 15 16 17 18 19 20 21 22 23 24 25 26 27 28 29 30 31 32 33 34 35 36 37 38 39 40 41 42 43 44 45 46 47 48 49 50
000
ASUS43 KIWX 290100
RWRIWX

KIWX WEATHER ROUNDUP
NATIONAL WEATHER SERVICE NORTHERN INDIANA
900 PM EDT THU AUG 28 2014

NOTE: "FAIR" INDICATES FEW OR NO CLOUDS BELOW 12,000 FEET WITH NO
SIGNIFICANT WEATHER AND/OR OBSTRUCTIONS TO VISIBILITY.

* THESE STATIONS ARE NOT UNDER NWS QUALITY CONTROL. THEY ALSO MAY NOT
  REPORT WEATHER SUCH AS PRECIPITATION OR FOG.

INZ001>027-290200-
NORTHERN INDIANA

CITY           SKY/WX    TMP DP  RH WIND       PRES   REMARKS
GARY*          CLOUDY    72  64  78 NE6       30.06S
VALPARAISO     PTCLDY    69  65  86 NE3       30.07R
SOUTH BEND     CLEAR     74  60  61 E6        30.08R
ELKHART*       PTCLDY    72  63  73 CALM      30.08S
GOSHEN         PTCLDY    72  64  76 SE3       30.08R
MONTICELLO*    CLEAR     73  67  81 E3        30.04R
ANGOLA*        CLEAR     70  61  73 SE5       30.10R
FORT WAYNE     PTCLDY    70  63  78 SE5       30.10R
PERU/GRISSOM   CLEAR     72  70  93 E6        30.06R

$$
INZ028>050-290200-
CENTRAL INDIANA

CITY           SKY/WX    TMP DP  RH WIND       PRES   REMARKS
LAFAYETTE      PTCLDY    73  65  75 E7        30.03R
KOKOMO*        CLEAR     70  64  83 E6        30.06S
MUNCIE*        CLEAR     69  64  84 E6        30.08R
INDIANAPOLIS   PTCLDY    78  65  63 E9        30.03S

$$
MIZ043>046-050>051-056>058-064>065-071>073-077>080-290200-
SOUTHWEST LOWER MICHIGAN

CITY           SKY/WX    TMP DP  RH WIND       PRES   REMARKS
BATTLE CREEK   PTCLDY    69  55  60 NE7       30.11R
BENTON HARBOR  PTCLDY    69  60  73 E3        30.07R
COLDWATER*     PTCLDY    69  59  71 E3        30.10R
HILLSDALE*     PTCLDY    66  57  72 CALM      30.12R
HOLLAND        MOCLDY    68  54  60 E5        30.10S
GRAND RAPIDS   MOCLDY    66  58  75 E6        30.11S
KALAMAZOO      PTCLDY    69  56  62 VRB3      30.09S
STURGIS*       PTCLDY    66  63  88 NE5       30.09S
THREE RIVERS*  FAIR      69  61  74 E5        30.09S

$$
OHZ001>008-015>018-024>025-290200-
NORTHWEST OHIO

CITY           SKY/WX    TMP DP  RH WIND       PRES   REMARKS
DEFIANCE       PTCLDY    69  59  70 SE6       30.11R
FINDLAY        PTCLDY    68  57  68 E8        30.12R
TOLEDO EXPRESS MOCLDY    65  56  72 E6        30.11R
TOLEDO METCALF MOCLDY    65  56  72 E6        30.13R
LIMA           CLEAR     67  61  81 E5        30.12R

$$
&&


USA.gov is the U.S. government's official web portal to all federal, state and local government web resources and services.